FW2904 Weather Reports


time (UTC)temp
F
wind
direction
speed
knots
gust
knots
rain 1hr
in
rain 24hr
in
rain mn
in
humidity
%
barometer
mb
20260504150908 51 52 7.8 17.4 0.00 0.00 0.00 49 1017.8
20260504150406 51 53 7.8 16.5 0.00 0.00 0.00 50 1017.9
20260504140909 50 39 7.0 14.8 0.00 0.00 0.00 52 1016.6
20260504140406 51 30 7.8 18.2 0.00 0.00 0.00 51 1016.2
20260504110348 40 47 0.9 4.3 0.00 0.00 0.00 67 1013.3
20260504100344 40 49 0.0 0.9 0.00 0.00 0.00 66 1013.3
20260504081846 40 49 0.0 0.9 0.00 0.00 0.00 67 1013.9
20260504081840 40 49 0.0 0.9 0.00 0.00 0.00 68 1013.8
20260504081510 40 49 0.0 0.0 0.00 0.00 0.00 66 1013.9
20260504080340 40 49 0.0 1.7 0.00 0.00 0.00 66 1014.0
20260504070335 41 49 0.0 1.7 0.00 0.00 0.00 65 1014.2
20260504050330 48 49 0.9 3.5 0.00 0.00 0.00 53 1015.0
20260504045828 48 49 0.0 3.5 0.00 0.00 0.00 53 1015.0
20260504045330 48 49 0.0 2.6 0.00 0.00 0.00 52 1015.1
20260504044830 49 49 0.0 2.6 0.00 0.00 0.00 53 1015.1
20260504044334 50 49 0.9 2.6 0.00 0.00 0.00 51 1015.1
20260504044330 50 49 0.0 0.9 0.00 0.00 0.00 51 1015.1
20260504043330 50 49 1.7 2.6 0.00 0.00 0.00 51 1015.2
20260504042829 51 49 1.7 3.5 0.00 0.00 0.00 51 1015.2
20260504042501 51 49 1.7 2.6 0.00 0.00 0.00 50 1015.3
20260504042327 51 49 1.7 4.3 0.00 0.00 0.00 51 1015.2
20260504041832 51 49 1.7 2.6 0.00 0.00 0.00 51 1015.3
20260504041826 51 49 1.7 4.3 0.00 0.00 0.00 51 1015.3
20260504040328 51 49 1.7 2.6 0.00 0.00 0.00 50 1015.3
20260504035826 52 49 0.9 1.7 0.00 0.00 0.00 49 1015.3
20260504035330 52 49 0.9 2.6 0.00 0.00 0.00 48 1015.3
20260504034835 54 49 1.7 3.5 0.00 0.00 0.00 46 1015.3
20260504034826 53 49 0.9 2.6 0.00 0.00 0.00 47 1015.3
20260504034326 53 49 0.9 2.6 0.00 0.00 0.00 46 1015.3
20260504033326 54 49 2.6 4.3 0.00 0.00 0.00 45 1015.3
20260504032825 54 49 3.5 5.2 0.00 0.00 0.00 45 1015.3
20260504032324 55 49 2.6 5.2 0.00 0.00 0.00 45 1015.2
20260504031831 55 49 2.6 5.2 0.00 0.00 0.00 44 1015.1
20260504031826 55 49 2.6 4.3 0.00 0.00 0.00 44 1015.2
20260504030824 55 49 2.6 5.2 0.00 0.00 0.00 43 1015.1
20260504030326 55 49 2.6 3.5 0.00 0.00 0.00 43 1015.2
20260504025833 56 49 1.7 4.3 0.00 0.00 0.00 42 1015.3
20260504025826 55 49 2.6 3.5 0.00 0.00 0.00 43 1015.2
20260504025456 56 49 1.7 4.3 0.00 0.00 0.00 42 1015.3
20260504024323 56 49 1.7 3.5 0.00 0.00 0.00 42 1015.3
20260504023821 56 49 1.7 3.5 0.00 0.00 0.00 41 1015.2
20260504023321 57 49 1.7 3.5 0.00 0.00 0.00 40 1015.2
20260504022823 58 49 1.7 3.5 0.00 0.00 0.00 39 1015.2
20260504022323 58 49 1.7 3.5 0.00 0.00 0.00 38 1015.1
20260504021822 59 49 1.7 3.5 0.00 0.00 0.00 37 1015.2
20260504021328 60 49 1.7 2.6 0.00 0.00 0.00 34 1015.2
20260504021322 59 49 1.7 2.6 0.00 0.00 0.00 35 1015.2
20260504020322 61 49 1.7 2.6 0.00 0.00 0.00 33 1015.1
20260504015823 61 49 1.7 2.6 0.00 0.00 0.00 31 1015.1
20260504015322 62 49 1.7 3.5 0.00 0.00 0.00 31 1015.1
20260504014822 63 49 1.7 3.5 0.00 0.00 0.00 30 1015.1
20260504014320 63 49 2.6 4.3 0.00 0.00 0.00 29 1015.1
20260504013820 64 49 1.7 4.3 0.00 0.00 0.00 29 1015.1
20260504013322 64 49 2.6 4.3 0.00 0.00 0.00 29 1015.1
20260504012825 65 49 2.6 6.1 0.00 0.00 0.00 27 1015.1
20260504012819 65 49 2.6 6.1 0.00 0.00 0.00 28 1015.0
20260504011817 66 49 3.5 6.1 0.00 0.00 0.00 26 1015.1
20260504011322 67 48 3.5 6.1 0.00 0.00 0.00 26 1015.1
20260504010823 67 48 3.5 8.7 0.00 0.00 0.00 26 1015.1
20260504010817 67 48 3.5 8.7 0.00 0.00 0.00 26 1015.1
20260504005818 68 46 3.5 8.7 0.00 0.00 0.00 25 1015.2
20260504005316 68 46 3.5 8.7 0.00 0.00 0.00 25 1015.2
20260504004818 69 45 3.5 8.7 0.00 0.00 0.00 24 1015.2
20260504004316 69 44 3.5 9.6 0.00 0.00 0.00 24 1015.2
20260504003814 69 44 3.5 9.6 0.00 0.00 0.00 24 1015.2
20260504003314 70 41 2.6 6.1 0.00 0.00 0.00 24 1015.2
20260504002820 70 37 1.7 7.8 0.00 0.00 0.00 25 1015.3
20260504002816 70 38 2.6 7.8 0.00 0.00 0.00 24 1015.3
20260504002446 69 35 1.7 4.3 0.00 0.00 0.00 26 1015.4
20260504001816 69 35 1.7 4.3 0.00 0.00 0.00 23 1015.4
20260504001445 68 35 3.5 11.3 0.00 0.00 0.00 25 1015.4
20260504000948 68 35 5.2 11.3 0.00 0.00 0.00 23 1015.5
20260503235812 68 22 4.3 11.3 0.00 0.00 0.00 24 1015.5
20260503235314 69 49 2.6 6.1 0.00 0.00 0.00 23 1015.7
20260503234814 68 50 1.7 5.2 0.00 0.00 0.00 24 1015.7
20260503234311 68 50 1.7 4.3 0.00 0.00 0.00 24 1015.7
20260503233811 68 50 3.5 8.7 0.00 0.00 0.00 24 1015.7
20260503233311 68 50 4.3 10.4 0.00 0.00 0.00 22 1015.7
20260503232810 68 46 4.3 10.4 0.00 0.00 0.00 22 1015.7
20260503232309 67 46 5.2 12.2 0.00 0.00 0.00 24 1015.8
20260503231815 66 17 3.5 8.7 0.00 0.00 0.00 22 1015.9
20260503231807 67 43 4.3 12.2 0.00 0.00 0.00 24 1015.8
20260503230811 66 20 4.3 14.8 0.00 0.00 0.00 24 1016.0
20260503230309 66 83 4.3 14.8 0.00 0.00 0.00 30 1016.1
20260503225811 67 88 4.3 10.4 0.00 0.00 0.00 29 1016.1
20260503225310 67 89 6.1 10.4 0.00 0.00 0.00 29 1016.1
20260503224816 68 74 3.5 8.7 0.00 0.00 0.00 29 1016.1
20260503224810 68 85 5.2 9.6 0.00 0.00 0.00 29 1016.1
20260503223807 67 0 2.6 7.0 0.00 0.00 0.00 29 1016.1
20260503223314 66 355 2.6 7.0 0.00 0.00 0.00 28 1016.4
20260503223309 67 0 1.7 7.0 0.00 0.00 0.00 28 1016.2
20260503222309 67 355 4.3 9.6 0.00 0.00 0.00 27 1016.5
20260503221808 67 355 5.2 13.0 0.00 0.00 0.00 27 1016.7
20260503221314 69 26 7.8 13.9 0.00 0.00 0.00 26 1016.1
20260503221310 68 53 6.1 13.9 0.00 0.00 0.00 27 1016.2
20260503220313 69 288 7.0 18.2 0.00 0.00 0.00 19 1016.0
20260503220307 70 285 7.0 13.9 0.00 0.00 0.00 18 1015.9
20260503215942 67 315 11.3 29.5 0.00 0.00 0.00 19 1016.2
20260503214809 67 28 10.4 29.5 0.00 0.00 0.00 20 1016.5
20260503214313 67 293 3.5 9.6 0.00 0.00 0.00 22 1016.4
20260503214309 68 344 5.2 25.2 0.00 0.00 0.00 20 1016.2
20260503213310 67 306 5.2 13.0 0.00 0.00 0.00 22 1016.6
20260503212810 67 309 9.6 26.9 0.00 0.00 0.00 22 1016.6
20260503212314 67 329 7.0 13.0 0.00 0.00 0.00 23 1016.7
20260503212308 67 307 10.4 26.9 0.00 0.00 0.00 21 1016.9
20260503211314 66 343 8.7 23.5 0.00 0.00 0.00 24 1016.9
20260503211310 66 347 7.0 13.9 0.00 0.00 0.00 24 1016.8
20260503210807 66 22 8.7 23.5 0.00 0.00 0.00 25 1016.8
20260503205807 68 342 7.0 20.0 0.00 0.00 0.00 22 1016.9
20260503205307 69 325 6.1 13.9 0.00 0.00 0.00 21 1016.7
20260503204809 68 0 7.8 26.9 0.00 0.00 0.00 22 1016.8
20260503204309 67 324 8.7 26.9 0.00 0.00 0.00 22 1016.9
20260503203806 68 12 6.1 13.0 0.00 0.00 0.00 21 1017.1
20260503203311 71 330 7.8 16.5 0.00 0.00 0.00 20 1016.9
20260503203305 69 343 7.0 16.5 0.00 0.00 0.00 21 1016.9
20260503202940 73 337 6.1 15.6 0.00 0.00 0.00 19 1017.1
20260503201813 73 300 7.8 16.5 0.00 0.00 0.00 20 1017.2
20260503201805 73 286 6.1 14.8 0.00 0.00 0.00 20 1016.9
20260503201306 72 281 7.0 14.8 0.00 0.00 0.00 19 1016.9
20260503200305 72 279 7.8 16.5 0.00 0.00 0.00 20 1017.1
20260503195806 72 293 6.1 13.9 0.00 0.00 0.00 21 1017.2
20260503195305 71 277 5.2 12.2 0.00 0.00 0.00 22 1017.2
20260503194807 70 279 4.3 11.3 0.00 0.00 0.00 23 1017.3
20260503194306 69 277 4.3 13.9 0.00 0.00 0.00 24 1017.4
20260503193805 69 278 5.2 13.9 0.00 0.00 0.00 24 1017.5
20260503193307 70 277 5.2 12.2 0.00 0.00 0.00 24 1017.6
20260503192805 70 278 3.5 11.3 0.00 0.00 0.00 24 1017.8
20260503192305 69 275 2.6 9.6 0.00 0.00 0.00 26 1017.9
20260503191807 69 275 4.3 11.3 0.00 0.00 0.00 26 1018.1
20260503191305 69 274 4.3 11.3 0.00 0.00 0.00 25 1018.2
20260503190805 68 268 3.5 7.0 0.00 0.00 0.00 28 1018.3
20260503190305 68 268 3.5 9.6 0.00 0.00 0.00 27 1018.5
20260503185805 68 268 4.3 9.6 0.00 0.00 0.00 28 1018.6
20260503185306 68 266 4.3 9.6 0.00 0.00 0.00 29 1018.8
20260503184805 67 265 5.2 11.3 0.00 0.00 0.00 29 1018.8
20260503184309 67 265 5.2 11.3 0.00 0.00 0.00 29 1018.9
20260503183807 67 263 5.2 12.2 0.00 0.00 0.00 30 1018.9
20260503183305 66 263 5.2 12.2 0.00 0.00 0.00 31 1018.9
20260503182805 65 263 3.5 8.7 0.00 0.00 0.00 31 1019.0
20260503182307 65 264 4.3 8.7 0.00 0.00 0.00 33 1019.3
20260503181807 65 264 4.3 15.6 0.00 0.00 0.00 32 1019.4
20260503181303 65 264 3.5 15.6 0.00 0.00 0.00 34 1019.4
20260503180803 64 304 5.2 11.3 0.00 0.00 0.00 32 1019.5
20260503180303 64 304 4.3 11.3 0.00 0.00 0.00 34 1019.6
20260503175804 64 338 4.3 8.7 0.00 0.00 0.00 33 1019.8
20260503175307 64 336 3.5 8.7 0.00 0.00 0.00 31 1019.9
20260503175301 64 336 3.5 8.7 0.00 0.00 0.00 32 1019.9
20260503174302 64 339 3.5 7.8 0.00 0.00 0.00 34 1020.0
20260503173802 63 339 3.5 7.8 0.00 0.00 0.00 35 1020.1
20260503173303 63 339 3.5 9.6 0.00 0.00 0.00 37 1020.2
20260503172806 62 339 3.5 7.8 0.00 0.00 0.00 36 1020.3
20260503172802 63 339 3.5 9.6 0.00 0.00 0.00 36 1020.2
20260503171801 62 339 3.5 7.8 0.00 0.00 0.00 38 1020.3
20260503171301 61 339 3.5 8.7 0.00 0.00 0.00 38 1020.3
20260503170816 61 339 3.5 9.6 0.00 0.00 0.00 37 1020.3
20260503170801 60 339 4.3 9.6 0.00 0.00 0.00 39 1020.3